When you browse on this site, cookies collect data to enhance your experience and personalize the content and advertising you see.
Visit our Privacy Policy to learn more. By continuing to use the site, you agree to this use of cookies and data.
  • In Deutschland
  • Länderverzeichnis
  • Für 7 Tage
  • Wassertemperatur
  • Wetterkarte
  • Widgets
  • user-avatar
    Anmelden

    Stündliche Wetter Lubango

    Heute, 12 Dezember, Donnerstag

    Zeit Temperatur Niederschläge Wind Luftdruck Luftfeuchtigkeit
    00:00 +15°C° 0 mm 1 m/S 608 mmHg 56%
    01:00 +15°C° 0 mm 1 m/S 608 mmHg 51%
    02:00 +15°C° 0 mm 1 m/S 607 mmHg 48%
    03:00 +15°C° 0 mm 1 m/S 607 mmHg 45%
    04:00 +15°C° 0 mm 1 m/S 607 mmHg 42%
    05:00 +16°C° 0 mm 1 m/S 608 mmHg 42%
    06:00 +18°C° 0 mm 1 m/S 608 mmHg 41%
    07:00 +18°C° 0 mm 0 m/S 609 mmHg 41%
    08:00 +22°C° 0 mm 1 m/S 610 mmHg 38%
    09:00 +24°C° 0 mm 1 m/S 611 mmHg 35%
    10:00 +26°C° 0 mm 2 m/S 611 mmHg 32%
    11:00 +27°C° 0 mm 2 m/S 611 mmHg 31%
    12:00 +27°C° 0 mm 2 m/S 611 mmHg 30%
    13:00 +28°C° 0 mm 2 m/S 610 mmHg 29%
    14:00 +27°C° 0 mm 2 m/S 610 mmHg 31%
    15:00 +27°C° 0 mm 2 m/S 609 mmHg 33%
    16:00 +26°C° 0 mm 2 m/S 609 mmHg 34%
    17:00 +24°C° 0 mm 2 m/S 608 mmHg 42%
    18:00 +20°C° 0 mm 2 m/S 608 mmHg 50%
    19:00 +18°C° 0 mm 2 m/S 607 mmHg 59%
    20:00 +19°C° 0 mm 1 m/S 608 mmHg 58%
    21:00 +18°C° 0 mm 1 m/S 608 mmHg 58%
    22:00 +16°C° 0 mm 0 m/S 608 mmHg 58%
    23:00 +15°C° 0 mm 0 m/S 608 mmHg 58%

    Morgen, 13 Dezember, Freitag

    Zeit Temperatur Niederschläge Wind Luftdruck Luftfeuchtigkeit
    00:00 +16°C° 0 mm 1 m/S 608 mmHg 58%
    01:00 +16°C° 0 mm 1 m/S 608 mmHg 59%
    02:00 +16°C° 0 mm 1 m/S 608 mmHg 57%
    03:00 +16°C° 0 mm 1 m/S 607 mmHg 56%
    04:00 +16°C° 0 mm 1 m/S 607 mmHg 54%
    05:00 +18°C° 0 mm 1 m/S 608 mmHg 52%
    06:00 +19°C° 0 mm 1 m/S 609 mmHg 49%
    07:00 +20°C° 0 mm 1 m/S 609 mmHg 47%
    08:00 +22°C° 0 mm 1 m/S 610 mmHg 41%
    09:00 +24°C° 0 mm 2 m/S 611 mmHg 36%
    10:00 +26°C° 0 mm 2 m/S 611 mmHg 30%
    11:00 +27°C° 0 mm 2 m/S 611 mmHg 29%
    12:00 +28°C° 0 mm 2 m/S 611 mmHg 28%
    13:00 +29°C° 0 mm 2 m/S 611 mmHg 26%
    14:00 +28°C° 0 mm 2 m/S 610 mmHg 29%
    15:00 +27°C° 0 mm 2 m/S 609 mmHg 32%
    16:00 +27°C° 0 mm 2 m/S 609 mmHg 35%
    17:00 +24°C° 0 mm 2 m/S 608 mmHg 44%
    18:00 +21°C° 0 mm 2 m/S 608 mmHg 52%
    19:00 +18°C° 0 mm 2 m/S 607 mmHg 61%
    20:00 +18°C° 0 mm 2 m/S 607 mmHg 61%
    21:00 +18°C° 0 mm 1 m/S 608 mmHg 61%
    22:00 +18°C° 0 mm 1 m/S 608 mmHg 61%
    23:00 +18°C° 0 mm 1 m/S 608 mmHg 54%

    übermorgen, 14 Dezember, Samstag

    Zeit Temperatur Niederschläge Wind Luftdruck Luftfeuchtigkeit
    00:00 +18°C° 0 mm 1 m/S 608 mmHg 48%
    01:00 +17°C° 0 mm 2 m/S 608 mmHg 41%
    02:00 +17°C° 0 mm 2 m/S 607 mmHg 40%
    03:00 +17°C° 0 mm 2 m/S 607 mmHg 39%
    04:00 +17°C° 0 mm 2 m/S 607 mmHg 38%
    05:00 +18°C° 0 mm 2 m/S 608 mmHg 39%
    06:00 +19°C° 0 mm 2 m/S 608 mmHg 39%
    07:00 +20°C° 0 mm 2 m/S 609 mmHg 40%
    08:00 +21°C° 0 mm 2 m/S 610 mmHg 37%
    09:00 +24°C° 0 mm 2 m/S 610 mmHg 33%
    10:00 +26°C° 0 mm 3 m/S 611 mmHg 30%
    11:00 +27°C° 0 mm 2 m/S 611 mmHg 29%
    12:00 +29°C° 0 mm 2 m/S 611 mmHg 27%
    13:00 +30°C° 0 mm 2 m/S 611 mmHg 26%
    14:00 +29°C° 0 mm 2 m/S 610 mmHg 29%
    15:00 +28°C° 0 mm 2 m/S 609 mmHg 32%
    16:00 +27°C° 0 mm 2 m/S 608 mmHg 35%
    17:00 +25°C° 0 mm 2 m/S 608 mmHg 46%
    18:00 +22°C° 0 mm 1 m/S 608 mmHg 57%
    19:00 +20°C° 0 mm 1 m/S 607 mmHg 68%
    20:00 +19°C° 0 mm 1 m/S 608 mmHg 72%
    21:00 +19°C° 0 mm 1 m/S 608 mmHg 77%
    22:00 +18°C° 0 mm 1 m/S 608 mmHg 81%
    23:00 +18°C° 0 mm 1 m/S 608 mmHg 82%

    15 Dezember, Sonntag

    Zeit Temperatur Niederschläge Wind Luftdruck Luftfeuchtigkeit
    00:00 +16°C° 0 mm 1 m/S 608 mmHg 82%
    01:00 +16°C° 0 mm 2 m/S 607 mmHg 83%
    02:00 +16°C° 0 mm 1 m/S 607 mmHg 80%
    03:00 +18°C° 0 mm 1 m/S 607 mmHg 78%
    04:00 +18°C° 0 mm 1 m/S 607 mmHg 76%
    05:00 +18°C° 0 mm 1 m/S 608 mmHg 73%
    06:00 +19°C° 0 mm 1 m/S 608 mmHg 71%
    07:00 +19°C° 0 mm 1 m/S 608 mmHg 69%
    08:00 +21°C° 0 mm 1 m/S 609 mmHg 61%
    09:00 +24°C° 0 mm 2 m/S 610 mmHg 52%
    10:00 +26°C° 0 mm 2 m/S 611 mmHg 44%
    11:00 +27°C° 0.2 mm 2 m/S 611 mmHg 43%
    12:00 +27°C° 0.2 mm 2 m/S 610 mmHg 42%
    13:00 +28°C° 0.2 mm 2 m/S 610 mmHg 41%
    14:00 +26°C° 0.4 mm 2 m/S 609 mmHg 49%
    15:00 +24°C° 0.4 mm 2 m/S 608 mmHg 56%
    16:00 +21°C° 0.4 mm 2 m/S 607 mmHg 64%
    17:00 +20°C° 1 mm 2 m/S 607 mmHg 71%
    18:00 +19°C° 1 mm 2 m/S 607 mmHg 78%
    19:00 +17°C° 1 mm 2 m/S 607 mmHg 86%
    20:00 +18°C° 0.7 mm 1 m/S 607 mmHg 86%
    21:00 +18°C° 0.7 mm 1 m/S 607 mmHg 86%
    22:00 +16°C° 0.7 mm 0 m/S 608 mmHg 86%
    23:00 +16°C° 0 mm 0 m/S 607 mmHg 84%

    16 Dezember, Montag

    Zeit Temperatur Niederschläge Wind Luftdruck Luftfeuchtigkeit
    00:00 +18°C° 0 mm 1 m/S 607 mmHg 83%
    01:00 +18°C° 0 mm 1 m/S 607 mmHg 82%
    02:00 +18°C° 0 mm 1 m/S 607 mmHg 81%
    03:00 +16°C° 0 mm 0 m/S 606 mmHg 79%
    04:00 +16°C° 0 mm 0 m/S 606 mmHg 78%
    05:00 +16°C° 0 mm 0 m/S 607 mmHg 76%
    06:00 +17°C° 0 mm 0 m/S 607 mmHg 75%
    07:00 +18°C° 0 mm 0 m/S 608 mmHg 73%
    08:00 +22°C° 0.1 mm 1 m/S 609 mmHg 65%
    09:00 +24°C° 0.1 mm 1 m/S 610 mmHg 57%
    10:00 +26°C° 0.1 mm 2 m/S 610 mmHg 49%
    11:00 +26°C° 0.9 mm 2 m/S 609 mmHg 52%
    12:00 +25°C° 0.9 mm 2 m/S 609 mmHg 55%
    13:00 +24°C° 0.9 mm 2 m/S 608 mmHg 58%
    14:00 +23°C° 2.9 mm 2 m/S 607 mmHg 66%
    15:00 +20°C° 2.9 mm 2 m/S 605 mmHg 75%
    16:00 +18°C° 2.9 mm 2 m/S 604 mmHg 83%
    17:00 +18°C° 1.2 mm 2 m/S 605 mmHg 86%
    18:00 +18°C° 1.2 mm 2 m/S 605 mmHg 88%
    19:00 +17°C° 1.2 mm 2 m/S 606 mmHg 91%
    20:00 +18°C° 0.2 mm 1 m/S 606 mmHg 91%
    21:00 +18°C° 0.2 mm 1 m/S 607 mmHg 92%
    22:00 +18°C° 0.2 mm 1 m/S 607 mmHg 93%
    23:00 +18°C° 0.3 mm 1 m/S 607 mmHg 92%

    17 Dezember, Dienstag

    Zeit Temperatur Niederschläge Wind Luftdruck Luftfeuchtigkeit
    00:00 +16°C° 0.3 mm 1 m/S 607 mmHg 91%
    01:00 +16°C° 0.3 mm 1 m/S 606 mmHg 89%
    02:00 +16°C° 0 mm 1 m/S 606 mmHg 87%
    03:00 +16°C° 0 mm 1 m/S 606 mmHg 86%
    04:00 +16°C° 0 mm 1 m/S 606 mmHg 84%
    05:00 +18°C° 0 mm 1 m/S 606 mmHg 80%
    06:00 +18°C° 0 mm 1 m/S 607 mmHg 77%
    07:00 +19°C° 0 mm 1 m/S 607 mmHg 73%
    08:00 +21°C° 0 mm 1 m/S 608 mmHg 66%
    09:00 +23°C° 0 mm 1 m/S 609 mmHg 60%
    10:00 +25°C° 0 mm 2 m/S 609 mmHg 53%
    11:00 +25°C° 0.5 mm 2 m/S 609 mmHg 53%
    12:00 +25°C° 0.5 mm 2 m/S 608 mmHg 53%
    13:00 +26°C° 0.5 mm 2 m/S 608 mmHg 53%
    14:00 +25°C° 0.6 mm 3 m/S 607 mmHg 56%
    15:00 +24°C° 0.6 mm 3 m/S 607 mmHg 60%
    16:00 +22°C° 0.6 mm 4 m/S 606 mmHg 63%
    17:00 +21°C° 0.2 mm 3 m/S 606 mmHg 69%
    18:00 +19°C° 0.2 mm 3 m/S 606 mmHg 75%
    19:00 +18°C° 0.2 mm 2 m/S 606 mmHg 81%
    20:00 +17°C° 0 mm 2 m/S 606 mmHg 83%
    21:00 +17°C° 0 mm 2 m/S 606 mmHg 85%
    22:00 +16°C° 0 mm 1 m/S 606 mmHg 87%
    23:00 +16°C° 0 mm 1 m/S 606 mmHg 84%
    Mehr zeigen